User: anonymous   Login
Location: ????????
(55.0097°N, 38.5678°E)
Time: 07:12:19
(UTC+00:00)
Language:

ATLAS 5 CENTAUR R/B - Orbit

View from above orbital plane
View from above orbital plane
View from above satellite
View from above satellite

Ground track
Ground track

The orbit data is extracted from the following two-line orbital elements,

1 31702U 07027B   24166.75783936  .00006046  00000-0  52311-3 0  9997
2 31702  63.3298 300.3021 0522214  32.6393 330.5837 14.29487625  5188
Epoch (UTC): 14 June 2024 18:11:17
Eccentricity: 0.0522214
inclination: 63.3298°
perigee height: 419 km
apogee height: 1168 km
right ascension of ascending node: 300.3021°
argument of perigee: 32.6393°
revolutions per day: 14.29487625
mean anomaly at epoch: 330.5837°
orbit number at epoch: 518

The dashed part of the orbit path shows where the satellite is in the earth's shadow,  

DLR